| time (UTC) | temp F | wind direction | speed MPH | gust MPH | rain 1hr in | rain 24hr in | rain mn in | humidity % | barometer mb |
| 20260905065301 | 43 | 90 | 2.0 | 4.0 | 0.00 | 0.00 | 0.00 | 88 | 1016.2 |
| 20260905064751 | 43 | 68 | 2.0 | 4.0 | 0.00 | 0.00 | 0.00 | 88 | 1016.1 |
| 20260905064240 | 43 | 45 | 2.0 | 7.0 | 0.00 | 0.00 | 0.00 | 88 | 1016.2 |
| 20260905063730 | 43 | 90 | 3.0 | 7.0 | 0.00 | 0.00 | 0.00 | 88 | 1016.2 |
| 20260905063222 | 43 | 270 | 1.0 | 6.0 | 0.00 | 0.00 | 0.00 | 87 | 1016.2 |
| 20260905062710 | 43 | 90 | 2.0 | 4.0 | 0.00 | 0.00 | 0.00 | 87 | 1016.1 |
| 20260905062200 | 44 | 315 | 2.0 | 4.0 | 0.00 | 0.00 | 0.00 | 87 | 1016.3 |
| 20260905061139 | 44 | 23 | 2.0 | 6.0 | 0.00 | 0.00 | 0.00 | 87 | 1016.2 |
| 20260905060120 | 44 | 45 | 2.0 | 8.0 | 0.00 | 0.00 | 0.00 | 88 | 1016.3 |
| 20260905054549 | 44 | 0 | 2.0 | 6.0 | 0.00 | 0.00 | 0.00 | 89 | 1016.3 |
| 20260905054039 | 44 | 0 | 2.0 | 4.0 | 0.00 | 0.00 | 0.00 | 89 | 1016.2 |
| 20260905053229 | 44 | 338 | 2.0 | 4.0 | 0.00 | 0.00 | 0.00 | 89 | 1016.2 |
| 20260905052508 | 44 | 68 | 1.0 | 4.0 | 0.00 | 0.05 | 0.00 | 89 | 1016.1 |
| 20260905051958 | 44 | 23 | 1.0 | 4.0 | 0.00 | 0.05 | 0.00 | 88 | 1016.2 |
| 20260905050938 | 45 | 68 | 2.0 | 4.0 | 0.00 | 0.05 | 0.00 | 87 | 1016.1 |
| 20260905050427 | 45 | 23 | 2.0 | 6.0 | 0.00 | 0.05 | 0.00 | 87 | 1016.1 |
| 20260905045917 | 45 | 68 | 2.0 | 6.0 | 0.00 | 0.05 | 0.00 | 87 | 1016.2 |
| 20260905045407 | 45 | 68 | 1.0 | 4.0 | 0.00 | 0.05 | 0.00 | 87 | 1016.2 |
| 20260905044857 | 45 | 338 | 2.0 | 6.0 | 0.00 | 0.05 | 0.00 | 87 | 1016.3 |
| 20260905043836 | 45 | 23 | 2.0 | 4.0 | 0.00 | 0.05 | 0.00 | 88 | 1016.4 |
| 20260905043327 | 45 | 225 | 2.0 | 4.0 | 0.00 | 0.05 | 0.00 | 88 | 1016.4 |
| 20260905042816 | 44 | 23 | 1.0 | 4.0 | 0.00 | 0.05 | 0.00 | 88 | 1016.3 |
| 20260905042307 | 44 | 338 | 1.0 | 4.0 | 0.00 | 0.05 | 0.00 | 88 | 1016.1 |
| 20260905041246 | 45 | 45 | 0.0 | 2.0 | 0.00 | 0.05 | 0.00 | 87 | 1016.3 |
| 20260905040736 | 45 | 0 | 0.0 | 2.0 | 0.00 | 0.05 | 0.00 | 86 | 1016.0 |
| 20260905040226 | 45 | 45 | 0.0 | 2.0 | 0.00 | 0.05 | 0.00 | 86 | 1016.0 |
| 20260905035715 | 45 | 90 | 1.0 | 4.0 | 0.00 | 0.05 | 0.00 | 86 | 1016.0 |
| 20260905034655 | 45 | 0 | 2.0 | 4.0 | 0.00 | 0.05 | 0.00 | 86 | 1016.0 |
| 20260905034145 | 46 | 45 | 2.0 | 2.0 | 0.00 | 0.05 | 0.00 | 86 | 1015.9 |
| 20260905033635 | 46 | 23 | 0.0 | 2.0 | 0.00 | 0.05 | 0.00 | 85 | 1016.1 |
| 20260905033126 | 46 | 45 | 0.0 | 2.0 | 0.00 | 0.05 | 0.00 | 85 | 1016.1 |
| 20260905032105 | 46 | 68 | 1.0 | 2.0 | 0.00 | 0.05 | 0.00 | 84 | 1016.0 |
| 20260905031554 | 46 | 45 | 0.0 | 2.0 | 0.00 | 0.05 | 0.00 | 84 | 1016.0 |
| 20260905031045 | 46 | 90 | 1.0 | 4.0 | 0.00 | 0.05 | 0.00 | 84 | 1015.7 |
| 20260905030534 | 46 | 68 | 0.0 | 4.0 | 0.00 | 0.05 | 0.00 | 83 | 1015.9 |
| 20260905030025 | 47 | 45 | 1.0 | 4.0 | 0.00 | 0.05 | 0.00 | 83 | 1015.9 |
| 20260905025514 | 47 | 90 | 1.0 | 2.0 | 0.00 | 0.05 | 0.06 | 82 | 1015.8 |
| 20260905025025 | 47 | 23 | 0.0 | 2.0 | 0.00 | 0.05 | 0.06 | 82 | 1016.0 |
| 20260905024455 | 47 | 45 | 2.0 | 2.0 | 0.00 | 0.05 | 0.06 | 81 | 1015.8 |
| 20260905023943 | 47 | 315 | 0.0 | 4.0 | 0.00 | 0.05 | 0.06 | 81 | 1015.9 |
| 20260905023433 | 47 | 45 | 1.0 | 4.0 | 0.00 | 0.05 | 0.06 | 81 | 1015.5 |
| 20260905022923 | 47 | 45 | 0.0 | 4.0 | 0.00 | 0.05 | 0.06 | 81 | 1015.8 |
| 20260905022413 | 47 | 45 | 1.0 | 2.0 | 0.00 | 0.05 | 0.06 | 82 | 1015.8 |
| 20260905021903 | 48 | 90 | 0.0 | 2.0 | 0.00 | 0.05 | 0.06 | 82 | 1015.7 |
| 20260905021353 | 48 | 68 | 1.0 | 2.0 | 0.00 | 0.05 | 0.06 | 82 | 1015.6 |
| 20260905020332 | 48 | 23 | 1.0 | 2.0 | 0.00 | 0.05 | 0.06 | 83 | 1015.9 |
| 20260905015823 | 48 | 23 | 1.0 | 2.0 | 0.00 | 0.05 | 0.06 | 84 | 1015.8 |
| 20260905015313 | 48 | 90 | 0.0 | 2.0 | 0.01 | 0.05 | 0.06 | 84 | 1015.6 |
| 20260905014252 | 48 | 0 | 0.0 | 2.0 | 0.01 | 0.05 | 0.06 | 85 | 1015.4 |
| 20260905013741 | 48 | 45 | 0.0 | 2.0 | 0.01 | 0.05 | 0.06 | 84 | 1015.3 |
| 20260905012211 | 48 | 68 | 0.0 | 2.0 | 0.01 | 0.05 | 0.06 | 84 | 1015.3 |
| 20260905011702 | 49 | 23 | 0.0 | 2.0 | 0.01 | 0.05 | 0.06 | 83 | 1015.0 |
| 20260905011151 | 49 | 45 | 0.0 | 2.0 | 0.01 | 0.05 | 0.06 | 83 | 1015.1 |
| 20260905010641 | 49 | 68 | 0.0 | 2.0 | 0.01 | 0.05 | 0.06 | 83 | 1014.9 |
| 20260905005621 | 49 | 68 | 1.0 | 2.0 | 0.01 | 0.05 | 0.06 | 83 | 1015.0 |
| 20260905005111 | 49 | 203 | 1.0 | 2.0 | 0.00 | 0.04 | 0.05 | 82 | 1014.7 |
| 20260905004601 | 49 | 23 | 1.0 | 2.0 | 0.01 | 0.04 | 0.05 | 82 | 1015.5 |
| 20260905004050 | 49 | 135 | 0.0 | 2.0 | 0.01 | 0.04 | 0.05 | 83 | 1015.2 |
| 20260905003540 | 49 | 68 | 0.0 | 2.0 | 0.02 | 0.04 | 0.05 | 83 | 1014.9 |
| 20260905003030 | 49 | 248 | 1.0 | 2.0 | 0.02 | 0.04 | 0.05 | 83 | 1014.9 |
| 20260905002010 | 50 | 180 | 1.0 | 4.0 | 0.04 | 0.04 | 0.05 | 83 | 1014.8 |
| 20260905001459 | 50 | 203 | 1.0 | 2.0 | 0.04 | 0.04 | 0.05 | 83 | 1014.8 |
| 20260905000950 | 50 | 180 | 1.0 | 2.0 | 0.04 | 0.04 | 0.05 | 82 | 1014.8 |
| 20260905000439 | 51 | 68 | 1.0 | 4.0 | 0.04 | 0.04 | 0.05 | 82 | 1014.7 |
| 20260904235929 | 51 | 45 | 1.0 | 4.0 | 0.04 | 0.04 | 0.05 | 81 | 1014.6 |
| 20260904235420 | 51 | 68 | 1.0 | 4.0 | 0.04 | 0.04 | 0.05 | 79 | 1014.6 |
| 20260904234909 | 52 | 113 | 1.0 | 6.0 | 0.04 | 0.04 | 0.05 | 77 | 1014.4 |
| 20260904234359 | 52 | 180 | 2.0 | 6.0 | 0.02 | 0.02 | 0.04 | 77 | 1014.4 |
| 20260904233849 | 52 | 180 | 1.0 | 6.0 | 0.02 | 0.02 | 0.04 | 76 | 1014.1 |
| 20260904233338 | 53 | 45 | 2.0 | 6.0 | 0.01 | 0.01 | 0.02 | 75 | 1013.8 |
| 20260904231808 | 53 | 45 | 2.0 | 6.0 | 0.00 | 0.00 | 0.01 | 67 | 1013.6 |
| 20260904231258 | 53 | 180 | 2.0 | 6.0 | 0.00 | 0.00 | 0.01 | 69 | 1013.3 |
| 20260904230753 | 54 | 45 | 2.0 | 6.0 | 0.00 | 0.00 | 0.01 | 67 | 1012.9 |
| 20260904225728 | 54 | 90 | 3.0 | 6.0 | 0.00 | 0.00 | 0.01 | 63 | 1012.6 |
| 20260904225217 | 54 | 68 | 2.0 | 7.0 | 0.00 | 0.00 | 0.01 | 63 | 1012.6 |
| 20260904224709 | 54 | 23 | 2.0 | 7.0 | 0.00 | 0.00 | 0.01 | 63 | 1012.7 |
| 20260904224157 | 54 | 68 | 2.0 | 6.0 | 0.00 | 0.00 | 0.01 | 64 | 1012.6 |
| 20260904223646 | 54 | 23 | 3.0 | 6.0 | 0.00 | 0.00 | 0.01 | 64 | 1012.6 |
| 20260904223137 | 54 | 23 | 2.0 | 4.0 | 0.00 | 0.00 | 0.01 | 65 | 1012.7 |
| 20260904222626 | 54 | 45 | 1.0 | 4.0 | 0.00 | 0.00 | 0.01 | 66 | 1012.7 |
| 20260904221607 | 53 | 68 | 2.0 | 4.0 | 0.00 | 0.00 | 0.01 | 68 | 1012.6 |
| 20260904221056 | 53 | 45 | 2.0 | 4.0 | 0.00 | 0.00 | 0.01 | 69 | 1012.7 |
| 20260904220548 | 53 | 113 | 2.0 | 4.0 | 0.00 | 0.00 | 0.01 | 69 | 1012.7 |
| 20260904215525 | 53 | 338 | 2.0 | 4.0 | 0.00 | 0.00 | 0.01 | 68 | 1012.9 |
| 20260904214505 | 54 | 45 | 2.0 | 4.0 | 0.00 | 0.00 | 0.01 | 69 | 1012.9 |
| 20260904213955 | 54 | 68 | 2.0 | 4.0 | 0.00 | 0.00 | 0.01 | 69 | 1012.9 |
| 20260904212935 | 55 | 315 | 0.0 | 8.0 | 0.00 | 0.00 | 0.01 | 69 | 1012.9 |
| 20260904212427 | 55 | 23 | 4.0 | 8.0 | 0.00 | 0.00 | 0.01 | 69 | 1012.8 |
| 20260904211914 | 55 | 68 | 0.0 | 4.0 | 0.00 | 0.00 | 0.01 | 67 | 1013.0 |
| 20260904211404 | 56 | 23 | 1.0 | 4.0 | 0.00 | 0.00 | 0.01 | 66 | 1013.0 |
| 20260904210344 | 56 | 113 | 2.0 | 4.0 | 0.00 | 0.00 | 0.01 | 64 | 1012.9 |
| 20260904205833 | 57 | 68 | 2.0 | 4.0 | 0.00 | 0.00 | 0.01 | 62 | 1012.8 |
| 20260904205323 | 57 | 90 | 2.0 | 4.0 | 0.00 | 0.00 | 0.01 | 61 | 1012.8 |
| 20260904204814 | 57 | 90 | 2.0 | 6.0 | 0.00 | 0.00 | 0.01 | 60 | 1012.9 |
| 20260904204303 | 58 | 113 | 2.0 | 8.0 | 0.00 | 0.00 | 0.01 | 59 | 1012.8 |
| 20260904203754 | 59 | 45 | 4.0 | 8.0 | 0.00 | 0.00 | 0.01 | 49 | 1013.0 |
| 20260904203243 | 59 | 45 | 4.0 | 8.0 | 0.00 | 0.00 | 0.01 | 48 | 1012.9 |
| 20260904202733 | 60 | 68 | 2.0 | 7.0 | 0.00 | 0.00 | 0.01 | 47 | 1012.8 |
| 20260904202223 | 60 | 68 | 4.0 | 7.0 | 0.00 | 0.00 | 0.01 | 45 | 1013.0 |
| 20260904201202 | 59 | 90 | 3.0 | 9.0 | 0.00 | 0.00 | 0.01 | 46 | 1013.1 |
| 20260904200654 | 59 | 135 | 2.0 | 11.0 | 0.00 | 0.00 | 0.01 | 46 | 1012.9 |
| 20260904200142 | 59 | 68 | 4.0 | 11.0 | 0.00 | 0.00 | 0.01 | 44 | 1013.0 |
| 20260904195632 | 60 | 0 | 8.0 | 11.0 | 0.00 | 0.00 | 0.01 | 43 | 1013.0 |
| 20260904195122 | 60 | 45 | 2.0 | 9.0 | 0.00 | 0.00 | 0.01 | 42 | 1013.0 |
| 20260904194613 | 59 | 68 | 2.0 | 9.0 | 0.00 | 0.00 | 0.01 | 42 | 1013.0 |
| 20260904194101 | 60 | 23 | 3.0 | 9.0 | 0.00 | 0.00 | 0.01 | 42 | 1013.1 |
| 20260904193041 | 61 | 90 | 2.0 | 6.0 | 0.00 | 0.00 | 0.01 | 38 | 1012.9 |
| 20260904192532 | 60 | 45 | 5.0 | 0.0 | 0.00 | 0.00 | 0.01 | 40 | 1012.9 |
| 20260904192131 | 62 | 45 | 4.0 | 9.0 | 0.00 | 0.01 | 0.01 | 37 | 1013.1 |
| 20260904191621 | 61 | 338 | 2.0 | 9.0 | 0.00 | 0.01 | 0.01 | 40 | 1013.2 |
| 20260904191110 | 62 | 90 | 4.0 | 8.0 | 0.00 | 0.01 | 0.01 | 38 | 1013.3 |
| 20260904190601 | 62 | 338 | 4.0 | 9.0 | 0.00 | 0.01 | 0.01 | 35 | 1013.2 |
| 20260904190050 | 62 | 68 | 3.0 | 9.0 | 0.00 | 0.01 | 0.01 | 36 | 1013.4 |
| 20260904185540 | 61 | 68 | 4.0 | 8.0 | 0.00 | 0.01 | 0.01 | 36 | 1013.2 |
| 20260904185030 | 61 | 0 | 4.0 | 9.0 | 0.00 | 0.01 | 0.01 | 38 | 1013.2 |
| 20260904184524 | 61 | 68 | 4.0 | 9.0 | 0.00 | 0.01 | 0.01 | 38 | 1013.2 |
| 20260904184010 | 61 | 68 | 5.0 | 8.0 | 0.00 | 0.01 | 0.01 | 36 | 1013.3 |
| 20260904183500 | 62 | 90 | 4.0 | 7.0 | 0.00 | 0.01 | 0.01 | 36 | 1013.2 |
| 20260904182950 | 62 | 90 | 2.0 | 9.0 | 0.00 | 0.01 | 0.01 | 36 | 1013.4 |
| 20260904182440 | 62 | 248 | 3.0 | 9.0 | 0.00 | 0.01 | 0.01 | 37 | 1013.3 |
| 20260904180909 | 61 | 68 | 5.0 | 9.0 | 0.00 | 0.01 | 0.01 | 38 | 1013.3 |
| 20260904180359 | 61 | 90 | 4.0 | 9.0 | 0.00 | 0.01 | 0.01 | 41 | 1013.4 |
| 20260904175848 | 62 | 68 | 2.0 | 6.0 | 0.00 | 0.01 | 0.01 | 40 | 1013.4 |
| 20260904175339 | 61 | 135 | 2.0 | 7.0 | 0.00 | 0.01 | 0.01 | 40 | 1013.5 |
| 20260904174828 | 61 | 248 | 3.0 | 9.0 | 0.00 | 0.01 | 0.01 | 41 | 1013.6 |
| 20260904174318 | 61 | 90 | 2.0 | 9.0 | 0.00 | 0.01 | 0.01 | 43 | 1013.5 |
| 20260904173808 | 61 | 23 | 1.0 | 7.0 | 0.00 | 0.01 | 0.01 | 41 | 1013.7 |
| 20260904173259 | 60 | 45 | 3.0 | 9.0 | 0.00 | 0.01 | 0.01 | 43 | 1013.8 |
| 20260904172748 | 60 | 270 | 2.0 | 9.0 | 0.00 | 0.01 | 0.01 | 46 | 1013.7 |
| 20260904172238 | 59 | 68 | 3.0 | 11.0 | 0.00 | 0.01 | 0.01 | 47 | 1013.9 |
| 20260904171729 | 59 | 90 | 3.0 | 11.0 | 0.00 | 0.01 | 0.01 | 46 | 1014.0 |
| 20260904171217 | 60 | 68 | 4.0 | 8.0 | 0.00 | 0.01 | 0.01 | 46 | 1014.0 |
| 20260904170157 | 59 | 68 | 3.0 | 8.0 | 0.00 | 0.01 | 0.01 | 46 | 1014.2 |
| 20260904165137 | 59 | 68 | 2.0 | 8.0 | 0.00 | 0.01 | 0.01 | 45 | 1014.2 |
| 20260904164125 | 59 | 23 | 2.0 | 7.0 | 0.00 | 0.01 | 0.01 | 49 | 1014.5 |
| 20260904163606 | 59 | 113 | 4.0 | 7.0 | 0.00 | 0.01 | 0.01 | 49 | 1014.6 |
| 20260904163056 | 58 | 248 | 2.0 | 8.0 | 0.00 | 0.01 | 0.01 | 50 | 1014.6 |
| 20260904162545 | 58 | 68 | 4.0 | 8.0 | 0.00 | 0.01 | 0.01 | 52 | 1014.6 |
| 20260904162036 | 58 | 45 | 5.0 | 8.0 | 0.00 | 0.01 | 0.01 | 52 | 1015.0 |
| 20260904161527 | 57 | 45 | 4.0 | 9.0 | 0.00 | 0.01 | 0.01 | 53 | 1014.7 |
| 20260904161016 | 57 | 90 | 3.0 | 9.0 | 0.00 | 0.01 | 0.01 | 56 | 1015.3 |
| 20260904160505 | 57 | 0 | 3.0 | 9.0 | 0.00 | 0.01 | 0.01 | 52 | 1015.4 |
| 20260904155956 | 56 | 68 | 3.0 | 9.0 | 0.00 | 0.01 | 0.01 | 54 | 1015.4 |
| 20260904155445 | 57 | 45 | 4.0 | 9.0 | 0.00 | 0.01 | 0.01 | 56 | 1015.4 |
| 20260904154936 | 57 | 68 | 3.0 | 7.0 | 0.00 | 0.01 | 0.01 | 52 | 1015.6 |
| 20260904153914 | 56 | 68 | 3.0 | 11.0 | 0.00 | 0.01 | 0.01 | 53 | 1015.5 |
| 20260904153405 | 56 | 90 | 2.0 | 9.0 | 0.00 | 0.01 | 0.01 | 56 | 1015.5 |
| 20260904152344 | 56 | 68 | 4.0 | 11.0 | 0.00 | 0.01 | 0.01 | 59 | 1015.5 |
| 20260904151834 | 56 | 90 | 2.0 | 8.0 | 0.00 | 0.01 | 0.01 | 56 | 1015.5 |
| 20260904151324 | 56 | 68 | 4.0 | 7.0 | 0.00 | 0.01 | 0.01 | 54 | 1015.5 |
| 20260904150814 | 56 | 23 | 2.0 | 6.0 | 0.00 | 0.01 | 0.01 | 59 | 1015.8 |
| 20260904150305 | 55 | 68 | 2.0 | 8.0 | 0.00 | 0.01 | 0.01 | 59 | 1015.9 |
| 20260904145754 | 54 | 315 | 2.0 | 8.0 | 0.00 | 0.01 | 0.01 | 61 | 1015.8 |
| 20260904145244 | 55 | 23 | 2.0 | 7.0 | 0.00 | 0.01 | 0.01 | 61 | 1015.9 |
| 20260904144734 | 55 | 270 | 2.0 | 6.0 | 0.00 | 0.01 | 0.01 | 61 | 1016.0 |
| 20260904144228 | 55 | 45 | 3.0 | 7.0 | 0.00 | 0.01 | 0.01 | 62 | 1016.0 |
| 20260904142652 | 53 | 45 | 2.0 | 8.0 | 0.00 | 0.01 | 0.01 | 66 | 1016.0 |
| 20260904142143 | 53 | 45 | 3.0 | 8.0 | 0.00 | 0.01 | 0.01 | 63 | 1016.1 |
| 20260904140613 | 53 | 90 | 2.0 | 6.0 | 0.00 | 0.01 | 0.01 | 68 | 1016.4 |
| 20260904134531 | 52 | 180 | 1.0 | 7.0 | 0.00 | 0.01 | 0.01 | 75 | 1016.3 |
| 20260904134021 | 51 | 45 | 2.0 | 7.0 | 0.00 | 0.01 | 0.01 | 76 | 1016.1 |
| 20260904133511 | 51 | 23 | 2.0 | 6.0 | 0.00 | 0.01 | 0.01 | 77 | 1016.3 |
| 20260904133002 | 51 | 23 | 1.0 | 6.0 | 0.00 | 0.01 | 0.01 | 77 | 1016.5 |
| 20260904132451 | 50 | 0 | 2.0 | 4.0 | 0.00 | 0.01 | 0.01 | 77 | 1016.3 |
| 20260904131941 | 50 | 45 | 2.0 | 9.0 | 0.00 | 0.01 | 0.01 | 79 | 1016.4 |
| 20260904130921 | 49 | 68 | 2.0 | 6.0 | 0.00 | 0.01 | 0.01 | 81 | 1016.2 |
| 20260904130410 | 49 | 45 | 2.0 | 4.0 | 0.00 | 0.01 | 0.01 | 83 | 1016.3 |
| 20260904125905 | 49 | 68 | 3.0 | 6.0 | 0.00 | 0.01 | 0.01 | 83 | 1016.1 |
| 20260904125350 | 48 | 23 | 1.0 | 6.0 | 0.00 | 0.01 | 0.01 | 85 | 1016.3 |
| 20260904124840 | 48 | 68 | 2.0 | 8.0 | 0.00 | 0.01 | 0.01 | 86 | 1016.1 |
| 20260904123820 | 47 | 68 | 2.0 | 7.0 | 0.00 | 0.01 | 0.01 | 87 | 1016.2 |
| 20260904123309 | 47 | 113 | 3.0 | 6.0 | 0.00 | 0.01 | 0.01 | 87 | 1016.0 |
| 20260904122249 | 46 | 45 | 2.0 | 4.0 | 0.00 | 0.01 | 0.01 | 90 | 1016.2 |
| 20260904121739 | 45 | 68 | 2.0 | 4.0 | 0.00 | 0.01 | 0.01 | 90 | 1016.1 |
| 20260904121229 | 45 | 68 | 1.0 | 4.0 | 0.00 | 0.01 | 0.01 | 91 | 1016.0 |
| 20260904120720 | 44 | 68 | 2.0 | 4.0 | 0.00 | 0.01 | 0.01 | 92 | 1016.0 |
| 20260904120209 | 44 | 68 | 2.0 | 4.0 | 0.00 | 0.01 | 0.01 | 93 | 1015.9 |
| 20260904115148 | 43 | 68 | 2.0 | 4.0 | 0.00 | 0.01 | 0.01 | 95 | 1015.8 |
| 20260904114638 | 43 | 68 | 2.0 | 4.0 | 0.00 | 0.01 | 0.01 | 95 | 1015.8 |
| 20260904114128 | 42 | 90 | 2.0 | 4.0 | 0.00 | 0.01 | 0.01 | 96 | 1015.7 |
| 20260904113618 | 42 | 90 | 2.0 | 6.0 | 0.00 | 0.01 | 0.01 | 96 | 1015.7 |
| 20260904113108 | 41 | 90 | 2.0 | 6.0 | 0.00 | 0.01 | 0.01 | 97 | 1015.5 |
| 20260904112557 | 41 | 45 | 2.0 | 4.0 | 0.00 | 0.01 | 0.01 | 97 | 1015.7 |
| 20260904112048 | 40 | 90 | 2.0 | 4.0 | 0.00 | 0.01 | 0.01 | 97 | 1015.5 |
| 20260904111538 | 40 | 45 | 1.0 | 4.0 | 0.00 | 0.01 | 0.01 | 97 | 1015.9 |
| 20260904111027 | 40 | 45 | 2.0 | 4.0 | 0.00 | 0.01 | 0.01 | 97 | 1015.6 |
| 20260904110517 | 40 | 68 | 2.0 | 4.0 | 0.00 | 0.01 | 0.01 | 97 | 1015.6 |
| 20260904110013 | 39 | 68 | 2.0 | 4.0 | 0.00 | 0.01 | 0.01 | 97 | 1015.7 |
| 20260904105457 | 39 | 68 | 2.0 | 4.0 | 0.00 | 0.01 | 0.01 | 97 | 1015.6 |
| 20260904104946 | 39 | 45 | 2.0 | 4.0 | 0.00 | 0.01 | 0.01 | 97 | 1015.5 |
| 20260904104437 | 39 | 68 | 2.0 | 4.0 | 0.00 | 0.01 | 0.01 | 97 | 1015.5 |
| 20260904103927 | 39 | 68 | 2.0 | 2.0 | 0.00 | 0.01 | 0.01 | 97 | 1015.5 |
| 20260904103417 | 39 | 45 | 1.0 | 2.0 | 0.00 | 0.01 | 0.01 | 97 | 1015.5 |
| 20260904102906 | 39 | 90 | 2.0 | 2.0 | 0.00 | 0.01 | 0.01 | 97 | 1015.1 |
| 20260904102358 | 38 | 68 | 2.0 | 2.0 | 0.00 | 0.01 | 0.01 | 97 | 1015.2 |
| 20260904101846 | 38 | 90 | 1.0 | 2.0 | 0.00 | 0.01 | 0.01 | 97 | 1015.2 |
| 20260904101336 | 38 | 68 | 1.0 | 2.0 | 0.01 | 0.01 | 0.01 | 97 | 1015.3 |
| 20260904100826 | 38 | 45 | 0.0 | 2.0 | 0.01 | 0.01 | 0.01 | 97 | 1015.2 |
| 20260904095255 | 38 | 45 | 1.0 | 2.0 | 0.01 | 0.01 | 0.01 | 97 | 1015.2 |
| 20260904094747 | 38 | 45 | 0.0 | 2.0 | 0.01 | 0.01 | 0.01 | 97 | 1015.1 |
| 20260904094235 | 39 | 45 | 1.0 | 2.0 | 0.01 | 0.01 | 0.01 | 97 | 1015.0 |
| 20260904093725 | 39 | 68 | 0.0 | 2.0 | 0.01 | 0.01 | 0.01 | 97 | 1015.1 |
| 20260904093215 | 39 | 45 | 1.0 | 2.0 | 0.01 | 0.01 | 0.01 | 97 | 1015.0 |
| 20260904092706 | 39 | 68 | 1.0 | 2.0 | 0.01 | 0.01 | 0.01 | 97 | 1014.8 |
| 20260904092155 | 39 | 68 | 1.0 | 2.0 | 0.01 | 0.01 | 0.01 | 97 | 1014.7 |
| 20260904091649 | 39 | 45 | 0.0 | 2.0 | 0.00 | 0.00 | 0.00 | 96 | 1014.9 |
| 20260904091134 | 39 | 68 | 0.0 | 2.0 | 0.00 | 0.00 | 0.00 | 96 | 1014.7 |
| 20260904090115 | 39 | 68 | 0.0 | 2.0 | 0.00 | 0.00 | 0.00 | 96 | 1014.4 |
| 20260904085603 | 39 | 45 | 0.0 | 2.0 | 0.00 | 0.00 | 0.00 | 96 | 1014.5 |
| 20260904085055 | 39 | 0 | 0.0 | 2.0 | 0.00 | 0.00 | 0.00 | 96 | 1014.5 |
| 20260904084544 | 39 | 45 | 0.0 | 2.0 | 0.00 | 0.00 | 0.00 | 96 | 1014.4 |
| 20260904084034 | 39 | 68 | 0.0 | 0.0 | 0.00 | 0.00 | 0.00 | 96 | 1014.4 |
| 20260904083524 | 39 | 45 | 0.0 | 2.0 | 0.00 | 0.00 | 0.00 | 96 | 1014.5 |
| 20260904083015 | 39 | 45 | 0.0 | 2.0 | 0.00 | 0.00 | 0.00 | 96 | 1014.4 |
| 20260904082503 | 39 | 45 | 0.0 | 2.0 | 0.00 | 0.00 | 0.00 | 96 | 1014.2 |
| 20260904081953 | 39 | 68 | 0.0 | 2.0 | 0.00 | 0.00 | 0.00 | 96 | 1014.3 |
| 20260904080932 | 40 | 45 | 1.0 | 2.0 | 0.00 | 0.00 | 0.00 | 96 | 1014.3 |
| 20260904080423 | 40 | 68 | 0.0 | 2.0 | 0.00 | 0.00 | 0.00 | 96 | 1014.2 |
| 20260904075913 | 39 | 23 | 1.0 | 2.0 | 0.00 | 0.00 | 0.00 | 96 | 1014.2 |
| 20260904075402 | 40 | 45 | 0.0 | 2.0 | 0.00 | 0.00 | 0.00 | 96 | 1014.2 |
| 20260904074851 | 40 | 45 | 0.0 | 2.0 | 0.00 | 0.00 | 0.00 | 96 | 1014.0 |
| 20260904074343 | 40 | 68 | 1.0 | 2.0 | 0.00 | 0.00 | 0.00 | 96 | 1014.0 |
| 20260904073832 | 39 | 68 | 1.0 | 2.0 | 0.00 | 0.00 | 0.00 | 96 | 1014.0 |
| 20260904073322 | 40 | 45 | 0.0 | 2.0 | 0.00 | 0.00 | 0.00 | 96 | 1014.0 |
| 20260904072811 | 40 | 23 | 0.0 | 2.0 | 0.00 | 0.00 | 0.00 | 96 | 1013.9 |
| 20260904072301 | 40 | 23 | 0.0 | 2.0 | 0.00 | 0.00 | 0.00 | 96 | 1013.9 |
| 20260904071751 | 40 | 0 | 0.0 | 2.0 | 0.00 | 0.00 | 0.00 | 96 | 1013.9 |
| 20260904070731 | 40 | 68 | 1.0 | 2.0 | 0.00 | 0.00 | 0.00 | 96 | 1013.9 |
| 20260904070225 | 40 | 45 | 1.0 | 2.0 | 0.00 | 0.00 | 0.00 | 96 | 1014.0 |